Calicut International Airport

Jump to: basic info | weather | frequencies | runways | comments

Related pages: nearby airports | nearby navaids | notams | map

Basic information (top)

Codes: CCJ VOCL
Location: lon 11.136800, lat 75.955299, elev 342 ft / 104 m msl
Status: large_airport
Scheduled airline service: yes
Links: Wikipedia Mobile

Weather (top)

Current conditions (rec'd 2014/10/23 10:30Z):

VOCL 231030Z 24002KT 6000 TS FEW008 SCT012 FEW025CB BKN080 26/25 Q1008 TEMPO 4000 -TSRA

Airport forecast (rec'd 2014/10/23 06:00Z):

TAF VOCL 230300Z 2306/2412 23005KT 7000 SCT012 BKN090 
      TEMPO 2311/2315 3000 TSRA/RA SCT006 SCT012 FEW025CB OVC080 
      BECMG 2316/2317 13005KT 4000 HZ 
      TEMPO 2322/2403 1000 DZ/BR SCT004 FEW025CB OVC080 
      BECMG 2404/2405 33005KT 6000 
      TEMPO 2408/2412 4000 TSRA/RA SCT006 FEW025CB OVC080

Frequencies (top)

Verify before use: may be inaccurate or out of date.

ATIS: 127 MHz (ATIS)
TWR: 122.95 MHz (TWR)

Runways (top)

10/28: 9,383 x 150 ft (2,860 x 46 m) — paved — lighted

Latest comments (top)

Moideenkutty oorakam ( CCJ ): Calicut int airport ( Terminal,1 - ... [read]

Info: Calicut International Airport ... [read]

More... (top)

See also NOTAMs and nearby airports and navaids, or visit the Calicut International Airport page at the main OurAirports website..